This is the latest recevied weather packets stored in our database for station/object WE8L. If no packets are shown the sender has not sent any weather packets the latest 10 day(s).
| Time | Temp. | Humidity | Pressure | Rain* | Wind** | Luminosity | Snow |
|---|---|---|---|---|---|---|---|
| 1777598691 | 9.44° C | 71% | 1017.7 hPa | 0 mm | - | 0 W/m² | - |
| 1777598387 | 9.44° C | 71% | 1017.7 hPa | 0 mm | - | 0 W/m² | - |
| 1777598086 | 10° C | 70% | 1017.6 hPa | 0 mm | - | 0 W/m² | - |
| 1777597785 | 10° C | 70% | 1017.8 hPa | 0 mm | - | 0 W/m² | - |
| 1777597480 | 10° C | 70% | 1017.7 hPa | 0 mm | - | 0 W/m² | - |
| 1777597176 | 10° C | 68% | 1017.8 hPa | 0 mm | - | 0 W/m² | - |
| 1777596872 | 10.56° C | 67% | 1017.4 hPa | 0 mm | - | 0 W/m² | - |
| 1777596568 | 10.56° C | 66% | 1017.6 hPa | 0 mm | - | 0 W/m² | - |
| 1777596266 | 10.56° C | 64% | 1017.6 hPa | 0 mm | - | 0 W/m² | - |
| 1777595963 | 11.11° C | 64% | 1017.6 hPa | 0 mm | - | 0 W/m² | - |
| 1777595663 | 11.67° C | 66% | 1017.6 hPa | 0 mm | - | 1 W/m² | - |
| 1777595358 | 12.22° C | 57% | 1017.8 hPa | 0 mm | - | 1 W/m² | - |
| 1777595055 | 12.22° C | 54% | 1018 hPa | 0 mm | - | 2 W/m² | - |
| 1777594752 | 12.78° C | 51% | 1017.7 hPa | 0 mm | - | 3 W/m² | - |
| 1777594448 | 12.78° C | 51% | 1017.5 hPa | 0 mm | - | 5 W/m² | - |
| 1777594144 | 12.78° C | 49% | 1017.7 hPa | 0 mm | - | 6 W/m² | - |
| 1777593840 | 13.33° C | 49% | 1017.7 hPa | 0 mm | - | 7 W/m² | - |
| 1777593537 | 13.33° C | 49% | 1017.9 hPa | 0 mm | - | 8 W/m² | - |
| 1777593236 | 13.33° C | 47% | 1017.7 hPa | 0 mm | - | 10 W/m² | - |
| 1777592936 | 13.33° C | 49% | 1017.6 hPa | 0 mm | - | 11 W/m² | - |
| 1777592631 | 13.33° C | 47% | 1017.6 hPa | 0 mm | - | 12 W/m² | - |
| 1777592328 | 13.89° C | 47% | 1017.5 hPa | 0 mm | - | 14 W/m² | - |
| 1777592024 | 13.89° C | 46% | 1017.6 hPa | 0 mm | - | 17 W/m² | - |
| 1777591721 | 13.89° C | 46% | 1017.6 hPa | 0 mm | - | 17 W/m² | - |
| 1777591416 | 14.44° C | 48% | 1017.3 hPa | 0 mm | - | 18 W/m² | - |
* Rain latest hour (hover to see other rain measurements)
** Current wind speed in m/s (hover to see current wind gust speed)